Pepinster, Belgium
Current Conditions -  °F | °C
As of 6:50 AM on Friday 28 Nov 2014 (Local Time) from EBLG Reporting Station
Clear Clear  
Wind Chill: 50°   Ceiling: Unl
Heat Index: 50°   Visibility: 6mi
Dew Point: 43°   Wind: 10mph
Humidity: 76%   Direction: 140°SE
Pressure: 29.68"   Gusts: NA
Location:  50.57°N, 5.8°E
Report Text: EBLG 280550Z 14009KT 110V190 CAVOK 10/06 Q1005 NOSIG
Loading
Personal Weather Stations






























Interactive Weather Map New forecast layout! Learn more

10-Day Weather Forecast

Advertisements
Track Severe Weather on mobile